CAPE
0 0 0 0 0 0 0 0 0 0 0 0 0 0 0 0 0 0 0 0 0 0 0 0 0 2 3 4 3 4 2 2 1 1 12 18 21 18 16 82 85 128 67 14 0 0 0 0 0
0 0 0 0 0 0 0 0 0 0 0 0 0 0 0 0 0 0 0 0 0 0 0 0 0 0 2 3 3 3 5 2 3 1 4 11 17 20 10 16 42 73 67 28 0 0 0 0 0
0 0 0 0 0 0 0 0 0 0 0 0 0 0 0 0 0 0 0 0 0 0 0 0 0 0 0 1 1 2 2 2 1 2 3 8 15 15 14 5 6 23 36 32 8 0 0 0 0
0 0 0 0 0 0 0 0 0 0 0 0 0 0 0 0 0 0 0 0 0 0 0 0 0 0 0 0 0 0 0 0 0 0 1 4 9 13 11 8 4 5 11 39 3 0 0 0 0
0 0 0 0 0 0 0 0 0 0 0 0 0 0 0 0 0 0 0 0 0 0 0 0 0 0 0 0 0 0 0 0 0 0 0 2 5 3 9 7 6 3 4 9 34 36 0 0 0
0 0 0 0 0 0 0 0 0 0 0 0 0 0 0 0 0 0 0 0 0 0 0 0 0 0 0 0 0 0 0 0 0 0 0 0 1 3 0 4 9 8 6 5 8 27 15 0 0
0 0 0 0 0 0 0 0 0 0 0 0 0 0 0 0 0 0 0 0 0 0 0 0 0 0 0 0 0 0 0 0 0 0 0 0 0 0 0 2 5 9 7 6 4 3 5 1 0
0 0 0 0 0 0 0 0 0 0 0 0 0 0 0 0 0 0 0 0 0 0 0 0 0 0 0 0 0 0 0 0 0 0 0 0 0 0 0 0 0 0 4 6 6 4 1 0 0
0 0 0 0 0 0 0 0 0 0 0 0 0 0 0 0 0 0 0 0 0 0 0 0 0 0 0 0 0 0 0 0 0 0 0 0 0 0 0 0 0 0 0 1 2 6 5 0 0
0 0 0 0 0 0 0 0 0 0 0 0 0 0 0 0 0 0 0 0 0 0 0 0 0 0 0 0 0 0 0 0 0 0 0 0 0 0 0 0 0 0 0 0 0 0 0 0 0
0 0 0 0 0 0 0 0 0 0 0 0 0 0 0 0 0 0 0 0 0 0 0 0 0 0 0 0 0 0 0 0 0 0 0 0 0 0 0 0 0 0 0 0 0 0 0 0 0
0 0 0 0 0 0 0 0 0 0 0 0 0 0 0 0 0 0 0 0 0 0 0 0 0 0 0 0 0 0 0 0 0 0 0 0 0 0 0 0 0 0 0 0 0 0 0 0 0
0 0 0 0 0 0 0 0 0 0 0 0 0 0 0 0 0 0 0 0 0 0 0 0 0 0 0 0 0 0 0 0 0 0 0 0 0 0 0 0 0 0 0 0 0 0 0 0 0
0 0 0 0 0 0 0 0 0 0 0 0 0 0 0 0 0 0 0 0 0 0 0 0 0 0 0 0 0 0 0 0 0 0 0 0 0 0 0 0 0 0 0 0 0 0 0 0 0
0 0 0 0 0 0 0 0 0 0 0 0 0 0 0 0 0 0 0 0 0 0 0 0 0 0 0 0 0 0 0 0 0 0 0 0 0 0 0 0 0 0 0 0 0 0 0 0 0
0 0 0 0 0 0 0 0 0 0 0 0 0 0 0 0 0 0 0 0 0 0 0 0 0 0 0 0 0 0 0 0 0 0 0 0 0 0 0 0 0 0 0 0 0 0 0 0 0
0 0 0 0 0 0 0 0 0 0 0 0 0 0 0 0 0 0 0 0 0 0 0 0 0 0 0 0 0 0 0 0 0 0 0 0 0 0 0 0 0 0 0 0 0 0 0 0 0
0 0 0 0 0 0 0 0 0 0 0 0 0 0 0 0 0 0 0 0 0 0 0 0 0 0 0 0 0 0 0 0 0 0 0 0 0 0 0 0 0 0 0 0 0 0 0 0 0
0 0 0 0 0 0 0 0 0 0 0 0 0 0 0 0 0 0 0 0 0 0 0 0 0 0 0 0 0 0 0 0 0 0 0 0 0 0 0 0 0 0 0 0 0 0 0 0 0
0 0 0 0 0 0 0 0 0 0 0 0 0 0 0 0 0 0 0 0 0 0 0 0 0 0 0 0 0 0 0 0 0 0 0 0 0 0 0 0 0 0 0 0 0 0 0 0 0
0 0 0 0 0 0 0 0 0 0 0 0 0 0 0 0 0 0 0 0 0 0 0 0 0 0 0 0 0 0 0 0 0 0 0 0 0 0 0 0 0 0 0 0 0 0 0 0 0
0 0 0 0 0 0 0 0 0 0 0 0 0 0 0 0 0 0 0 0 0 0 0 0 0 0 0 0 0 0 0 0 0 0 0 0 0 0 0 0 0 0 0 0 0 0 0 0 0
0 0 0 0 0 0 0 0 0 0 0 0 0 0 0 0 0 0 0 0 0 0 0 0 0 0 0 0 0 0 0 0 0 0 0 0 0 0 0 0 0 0 0 0 0 0 0 0 0
0 0 0 0 0 0 0 0 0 0 0 0 0 0 0 0 0 0 0 0 0 0 0 0 0 0 0 0 0 0 0 0 0 0 0 0 0 0 0 0 0 0 0 0 0 0 0 0 0
0 0 0 0 0 0 0 0 0 0 0 0 0 0 0 0 0 0 0 0 0 0 0 0 0 0 0 0 0 0 0 0 0 0 0 0 0 0 0 0 0 0 0 0 0 0 0 0 0
0 0 0 0 0 0 0 0 0 0 0 0 0 0 0 0 0 0 0 0 0 0 0 0 0 0 0 0 0 0 0 0 0 0 0 0 0 0 0 0 0 0 0 0 0 0 0 0 0
0 0 0 0 0 0 0 0 0 0 0 0 0 0 0 0 0 0 0 0 0 0 0 0 0 0 0 0 0 0 0 0 0 0 0 0 0 0 0 0 0 0 0 0 0 0 0 0 0
0 0 0 0 0 0 0 0 0 0 0 0 0 0 0 0 0 0 0 0 0 0 0 0 0 0 0 0 0 0 0 0 0 0 0 0 0 0 0 0 0 0 0 0 0 0 0 0 0
0 0 0 0 0 0 0 0 0 0 0 0 0 0 0 0 0 0 0 0 0 0 0 0 0 0 0 0 0 0 0 0 0 0 0 0 0 0 0 0 0 0 0 0 0 0 0 0 0
0 0 0 0 0 0 0 0 0 0 0 0 0 0 0 0 0 0 0 0 0 0 0 0 0 0 0 0 0 0 0 0 0 0 0 0 0 0 0 0 0 0 0 0 0 0 0 0 0
CIN
0 0 0 0 0 0 0 0 0 0 0 0 0 0 0 0 0 0 0 0 0 0 0 0 0 0 0 0 0 0 0 0 0 0 0 0 0 0 0 0 -1 0 0 -46 0 0 0 0 0
0 0 0 0 0 0 0 0 0 0 0 0 0 0 0 0 0 0 0 0 0 0 0 0 0 0 -1 0 0 0 0 0 -1 0 -1 0 0 0 0 0 -5 0 -1 -1 0 0 0 0 0
0 0 0 0 0 0 0 0 0 0 0 0 0 0 0 0 0 0 0 0 0 0 0 0 0 0 0 0 -1 0 0 0 0 0 0 -1 0 0 0 0 0 0 0 0 -1 0 0 0 0
0 0 0 0 0 0 0 0 0 0 0 0 0 0 0 0 0 0 0 0 0 0 0 0 0 0 0 0 0 0 0 0 0 0 0 0 0 0 0 0 0 0 0 0 0 0 0 0 0
0 0 0 0 0 0 0 0 0 0 0 0 0 0 0 0 0 0 0 0 0 0 0 0 0 0 0 0 0 0 0 0 0 0 0 0 -1 0 0 0 0 0 0 -4 0 0 0 0 0
0 0 0 0 0 0 0 0 0 0 0 0 0 0 0 0 0 0 0 0 0 0 0 0 0 0 0 0 0 0 0 0 0 0 0 0 0 0 0 0 0 0 0 0 -1 0 0 0 0
0 0 0 0 0 0 0 0 0 0 0 0 0 0 0 0 0 0 0 0 0 0 0 0 0 0 0 0 0 0 0 0 0 0 0 0 0 0 0 0 0 0 0 0 0 -1 -1 -7 0
0 0 0 0 0 0 0 0 0 0 0 0 0 0 0 0 0 0 0 0 0 0 0 0 0 0 0 0 0 0 0 0 0 0 0 0 0 0 0 0 0 0 0 0 0 0 0 0 -1
0 0 0 0 0 0 0 0 0 0 0 0 0 0 0 0 0 0 0 0 0 0 0 0 0 0 0 0 0 0 0 0 0 0 0 0 0 0 0 0 0 0 0 0 0 0 0 0 0
0 0 0 0 0 0 0 0 0 0 0 0 0 0 0 0 0 0 0 0 0 0 0 0 0 0 0 0 0 0 0 0 0 0 0 0 0 0 0 0 0 0 0 0 0 0 0 0 0
0 0 0 0 0 0 0 0 0 0 0 0 0 0 0 0 0 0 0 0 0 0 0 0 0 0 0 0 0 0 0 0 0 0 0 0 0 0 0 0 0 0 0 0 0 0 0 0 0
0 0 0 0 0 0 0 0 0 0 0 0 0 0 0 0 0 0 0 0 0 0 0 0 0 0 0 0 0 0 0 0 0 0 0 0 0 0 0 0 0 0 0 0 0 0 0 0 0
0 0 0 0 0 0 0 0 0 0 0 0 0 0 0 0 0 0 0 0 0 0 0 0 0 0 0 0 0 0 0 0 0 0 0 0 0 0 0 0 0 0 0 0 0 0 0 0 0
0 0 0 0 0 0 0 0 0 0 0 0 0 0 0 0 0 0 0 0 0 0 0 0 0 0 0 0 0 0 0 0 0 0 0 0 0 0 0 0 0 0 0 0 0 0 0 0 0
0 0 0 0 0 0 0 0 0 0 0 0 0 0 0 0 0 0 0 0 0 0 0 0 0 0 0 0 0 0 0 0 0 0 0 0 0 0 0 0 0 0 0 0 0 0 0 0 0
0 0 0 0 0 0 0 0 0 0 0 0 0 0 0 0 0 0 0 0 0 0 0 0 0 0 0 0 0 0 0 0 0 0 0 0 0 0 0 0 0 0 0 0 0 0 0 0 0
0 0 0 0 0 0 0 0 0 0 0 0 0 0 0 0 0 0 0 0 0 0 0 0 0 0 0 0 0 0 0 0 0 0 0 0 0 0 0 0 0 0 0 0 0 0 0 0 0
0 0 0 0 0 0 0 0 0 0 0 0 0 0 0 0 0 0 0 0 0 0 0 0 0 0 0 0 0 0 0 0 0 0 0 0 0 0 0 0 0 0 0 0 0 0 0 0 0
0 0 0 0 0 0 0 0 0 0 0 0 0 0 0 0 0 0 0 0 0 0 0 0 0 0 0 0 0 0 0 0 0 0 0 0 0 0 0 0 0 0 0 0 0 0 0 0 0
0 0 0 0 0 0 0 0 0 0 0 0 0 0 0 0 0 0 0 0 0 0 0 0 0 0 0 0 0 0 0 0 0 0 0 0 0 0 0 0 0 0 0 0 0 0 0 0 0
0 0 0 0 0 0 0 0 0 0 0 0 0 0 0 0 0 0 0 0 0 0 0 0 0 0 0 0 0 0 0 0 0 0 0 0 0 0 0 0 0 0 0 0 0 0 0 0 0
0 0 0 0 0 0 0 0 0 0 0 0 0 0 0 0 0 0 0 0 0 0 0 0 0 0 0 0 0 0 0 0 0 0 0 0 0 0 0 0 0 0 0 0 0 0 0 0 0
0 0 0 0 0 0 0 0 0 0 0 0 0 0 0 0 0 0 0 0 0 0 0 0 0 0 0 0 0 0 0 0 0 0 0 0 0 0 0 0 0 0 0 0 0 0 0 0 0
0 0 0 0 0 0 0 0 0 0 0 0 0 0 0 0 0 0 0 0 0 0 0 0 0 0 0 0 0 0 0 0 0 0 0 0 0 0 0 0 0 0 0 0 0 0 0 0 0
0 0 0 0 0 0 0 0 0 0 0 0 0 0 0 0 0 0 0 0 0 0 0 0 0 0 0 0 0 0 0 0 0 0 0 0 0 0 0 0 0 0 0 0 0 0 0 0 0
0 0 0 0 0 0 0 0 0 0 0 0 0 0 0 0 0 0 0 0 0 0 0 0 0 0 0 0 0 0 0 0 0 0 0 0 0 0 0 0 0 0 0 0 0 0 0 0 0
0 0 0 0 0 0 0 0 0 0 0 0 0 0 0 0 0 0 0 0 0 0 0 0 0 0 0 0 0 0 0 0 0 0 0 0 0 0 0 0 0 0 0 0 0 0 0 0 0
0 0 0 0 0 0 0 0 0 0 0 0 0 0 0 0 0 0 0 0 0 0 0 0 0 0 0 0 0 0 0 0 0 0 0 0 0 0 0 0 0 0 0 0 0 0 0 0 0
0 0 0 0 0 0 0 0 0 0 0 0 0 0 0 0 0 0 0 0 0 0 0 0 0 0 0 0 0 0 0 0 0 0 0 0 0 0 0 0 0 0 0 0 0 0 0 0 0
0 0 0 0 0 0 0 0 0 0 0 0 0 0 0 0 0 0 0 0 0 0 0 0 0 0 0 0 0 0 0 0 0 0 0 0 0 0 0 0 0 0 0 0 0 0 0 0 0
Wind_Speed
16 16 15 15 18 13 12 14 15 12 12 12 12 10 8 11 12 13 16 12 11 13 17 17 17 18 19 20 20 20 20 21 20 17 17 17 17 15 13 12 15 17 20 23 24 24 23 19 15
16 14 13 14 16 16 17 16 13 16 10 8 10 10 12 12 13 14 14 13 11 13 16 16 17 17 17 18 19 19 20 20 20 19 18 18 18 17 14 14 14 16 18 21 22 23 24 22 19
17 16 14 16 14 14 16 16 6 7 9 12 10 10 11 11 12 14 20 16 13 13 13 13 15 15 16 17 17 17 19 20 19 19 18 17 18 18 17 15 15 15 16 18 19 21 22 25 24
16 16 16 14 8 13 14 5 3 10 12 11 7 9 10 14 17 19 19 17 15 11 13 12 13 14 15 15 17 18 18 19 19 19 18 18 18 18 18 17 16 15 15 16 16 18 19 22 22
17 18 18 15 13 12 10 6 17 16 15 15 15 11 10 10 16 15 14 14 15 13 11 11 13 14 15 16 17 19 20 20 21 21 20 20 19 18 18 18 17 16 16 15 15 16 17 19 20
19 18 18 19 12 10 13 20 11 13 15 16 10 10 13 16 14 14 13 12 13 13 12 11 10 11 12 15 16 18 19 20 21 21 21 21 20 19 19 18 18 18 16 16 15 15 15 16 18
17 18 17 15 13 13 13 23 11 10 11 16 16 12 5 17 13 12 12 13 14 15 15 14 13 14 15 17 18 20 21 21 21 21 22 22 21 20 20 19 19 19 18 17 16 15 15 15 16
16 18 17 14 14 16 12 15 17 13 16 18 17 15 18 20 15 11 11 12 13 15 16 16 16 16 17 18 19 20 21 22 23 23 23 23 22 21 20 19 19 19 19 18 17 16 15 14 15
17 18 19 17 16 15 14 17 17 16 9 16 16 15 12 16 13 12 10 10 12 14 16 16 16 16 17 19 19 20 21 22 22 22 23 23 23 23 22 21 20 20 19 19 18 17 16 14 15
17 18 19 18 18 16 11 16 14 15 12 16 13 10 12 14 13 12 11 11 10 13 15 16 16 17 18 19 19 20 21 21 22 22 22 22 23 23 23 22 22 21 20 19 19 18 17 16 16
18 20 17 18 17 19 8 16 18 12 19 11 11 9 10 11 10 11 10 10 10 11 13 14 15 16 17 18 19 20 21 21 22 23 22 22 23 23 23 23 22 21 21 20 20 19 19 18 16
16 16 16 18 18 11 8 11 18 16 19 17 9 10 9 10 11 10 7 8 9 10 12 13 14 15 17 17 18 19 20 21 22 23 23 23 23 24 24 24 23 22 22 21 21 20 20 19 18
18 16 17 18 16 13 11 14 19 21 16 12 5 7 8 9 9 8 6 7 8 9 10 12 13 14 16 16 17 18 19 20 21 22 23 23 24 24 24 24 24 24 23 22 21 21 20 20 19
16 13 14 16 16 16 14 16 18 17 10 7 3 4 6 8 8 6 4 4 6 7 9 11 12 13 14 16 17 17 18 19 20 21 22 22 23 23 24 24 24 24 24 23 22 20 20 20 19
11 16 16 17 16 16 15 21 18 13 3 4 3 1 3 6 6 7 4 4 5 6 8 9 11 12 13 15 16 17 18 19 20 21 22 22 22 23 23 23 24 24 24 23 22 21 20 20 20
19 18 21 19 15 18 14 21 21 7 2 2 3 2 1 5 7 5 4 2 3 4 6 8 9 11 12 13 14 16 17 18 19 20 21 22 22 22 22 23 24 24 23 22 22 21 19 19 20
22 23 21 20 16 16 16 20 16 8 6 8 5 5 3 2 4 4 5 2 1 2 4 6 8 9 10 12 13 15 16 17 18 20 21 21 22 22 22 22 23 23 23 22 21 21 19 19 20
24 25 23 22 19 19 19 22 15 13 12 10 9 9 6 5 6 5 4 2 2 1 2 4 6 7 9 10 12 13 15 16 18 19 20 21 21 22 21 22 22 22 22 21 21 21 19 19 19
23 25 24 23 19 20 23 26 20 18 17 15 12 11 8 8 5 5 5 3 2 2 0 1 3 5 6 8 10 12 14 15 17 18 19 20 21 21 21 21 21 21 21 21 20 19 18 18 18
25 26 26 24 21 23 25 32 32 26 24 18 14 11 11 11 8 7 7 6 6 4 3 2 2 3 4 7 11 12 12 14 15 17 19 19 20 20 20 20 20 20 20 20 20 18 16 17 18
30 29 27 28 23 27 30 36 32 29 27 23 19 18 14 12 11 10 9 9 8 7 6 4 3 2 4 6 9 11 13 14 15 16 17 18 18 19 19 19 19 19 19 18 19 18 16 15 18
33 28 25 26 28 35 26 41 32 28 27 24 20 17 16 15 14 12 11 11 11 9 7 6 5 4 5 6 8 8 12 13 13 13 14 16 17 17 17 17 17 18 17 18 18 18 17 15 15
31 25 26 27 31 34 33 36 36 30 29 26 21 21 19 17 16 15 14 13 12 10 9 8 7 7 7 7 7 8 12 13 11 11 12 13 15 16 16 16 16 16 16 17 17 17 17 17 15
20 22 24 27 31 45 37 37 41 34 30 29 26 23 20 18 18 17 16 14 13 12 11 10 10 10 9 8 8 8 11 9 10 11 11 12 13 14 14 15 15 15 15 15 15 15 16 16 16
24 24 33 38 39 46 33 37 45 33 29 28 29 27 24 20 18 18 16 15 14 14 13 12 12 12 11 10 10 9 10 9 9 8 9 10 11 12 12 12 13 13 14 14 14 14 14 14 15
28 30 34 41 42 43 34 43 41 30 31 31 28 25 24 21 18 17 16 15 14 13 13 12 12 13 12 11 11 10 9 9 9 8 9 9 9 9 9 10 11 12 12 12 13 13 14 14 14
32 37 28 35 34 39 37 39 39 34 32 30 28 25 23 20 16 15 14 14 13 13 12 12 11 12 12 12 11 11 10 10 9 8 7 7 7 7 8 9 10 11 11 12 12 13 13 13 14
29 27 33 34 42 47 42 41 38 29 28 28 27 24 22 20 17 16 15 13 12 11 11 11 11 12 13 12 12 11 11 10 9 8 7 7 6 6 7 8 9 10 11 11 12 12 12 13 13
31 34 31 31 35 42 46 43 31 32 29 30 29 24 21 19 17 13 11 10 10 10 10 11 12 12 13 13 13 13 12 11 10 9 8 7 7 6 7 8 9 10 10 11 11 12 12 12 13
30 33 31 37 38 37 40 44 26 24 23 22 22 19 18 15 13 13 12 11 10 10 10 12 13 14 15 15 14 14 14 13 12 11 10 9 8 8 9 9 9 10 11 11 11 11 12 13 13
Wind_Direction
237 233 228 230 220 246 253 247 245 255 262 272 279 309 345 325 305 290 81 10 349 347 346 326 327 330 335 338 342 342 343 344 343 329 331 338 344 337 334 338 355 12 34 42 38 34 28 11 357
241 240 240 235 237 243 244 242 260 242 269 303 312 309 307 314 348 41 36 36 356 349 336 325 332 333 337 342 344 347 348 346 344 344 334 332 339 343 333 335 339 2 29 40 41 36 33 21 6
230 229 235 229 250 254 249 251 307 280 277 265 285 316 310 319 32 52 84 60 14 342 322 310 324 329 335 340 342 342 345 347 344 342 339 332 337 339 342 333 337 347 2 29 33 33 29 32 25
232 228 229 232 273 246 245 299 347 244 246 256 329 311 285 229 123 96 83 59 30 323 321 301 318 326 332 336 341 345 345 347 347 346 342 337 335 337 341 342 332 335 346 358 18 25 24 25 19
222 217 220 231 242 250 243 253 213 220 223 226 227 256 278 277 59 61 43 31 29 345 281 294 321 329 340 342 347 351 353 352 353 352 353 348 342 341 340 340 340 333 339 339 359 20 18 18 13
219 224 227 229 252 257 234 205 238 232 227 223 268 288 247 88 65 63 46 14 357 341 308 297 287 307 322 339 343 348 352 353 355 353 354 351 349 349 345 341 342 345 342 343 337 348 6 10 7
228 229 231 246 260 257 252 197 249 257 254 233 96 279 58 108 77 57 43 31 22 14 352 331 329 331 343 351 355 357 359 356 355 356 355 352 352 349 350 347 342 343 341 339 337 342 354 3 355
238 234 240 255 259 257 259 239 232 257 246 225 237 233 210 144 101 62 39 31 18 13 12 1 352 351 353 2 0 2 2 1 359 359 355 356 354 352 347 345 346 346 347 339 331 329 342 354 0
242 244 247 254 261 264 253 245 245 246 292 255 253 258 239 103 94 81 55 19 12 4 10 9 358 349 3 9 4 4 1 1 359 356 354 356 355 355 354 349 346 345 341 342 338 329 326 338 340
248 249 253 258 262 266 268 256 260 261 280 266 289 337 63 89 98 100 93 73 21 3 10 11 13 11 16 16 9 8 7 1 358 354 354 354 355 358 358 357 355 351 346 341 334 337 333 332 328
254 253 261 263 269 259 284 261 255 276 259 287 123 96 91 88 97 101 96 79 46 27 7 359 7 13 15 15 11 8 8 6 2 358 356 356 355 355 357 357 355 351 345 344 340 338 337 338 334
259 265 267 269 273 283 284 275 262 269 270 282 117 116 104 104 112 111 74 66 46 38 28 15 9 12 11 16 11 8 6 5 4 2 1 3 1 359 358 359 356 354 348 345 343 343 343 350 349
263 267 272 273 280 282 282 274 266 264 279 306 61 97 112 112 114 103 68 64 42 27 29 19 14 11 13 13 12 8 4 4 4 3 2 3 5 7 9 6 2 358 352 350 345 346 353 358 3
267 272 278 276 277 276 277 276 273 275 286 318 53 98 111 121 120 104 67 52 35 32 23 15 11 13 15 10 8 5 6 8 6 6 4 4 5 7 8 8 4 1 359 358 356 355 354 360 3
266 271 275 275 276 279 281 274 277 288 286 297 323 46 111 129 127 137 111 80 56 43 36 28 17 13 10 6 6 4 6 9 9 8 5 3 4 7 8 8 4 3 2 2 1 2 3 4 5
267 270 267 272 274 277 278 275 277 278 248 269 282 293 153 151 153 148 137 95 56 41 35 22 14 9 5 5 6 5 5 5 4 2 2 2 3 5 8 8 6 5 6 8 4 5 5 9 8
264 265 266 272 269 277 271 278 284 280 268 281 277 277 262 215 184 171 161 149 101 60 30 17 17 16 15 11 8 5 4 2 2 1 1 1 2 4 7 6 6 7 7 9 11 9 11 11 10
261 263 267 268 268 269 270 272 283 281 284 279 279 279 266 231 202 196 193 219 169 111 32 27 19 18 14 10 7 5 4 2 1 1 1 3 3 5 7 7 6 7 8 8 11 13 15 18 17
264 264 265 270 273 272 269 272 272 278 283 284 277 273 255 227 242 238 236 227 206 218 273 10 10 16 18 5 359 352 353 355 355 357 359 -0 1 4 5 8 7 9 9 9 11 16 19 18 22
266 263 265 272 272 273 277 271 271 273 275 275 276 263 264 271 251 244 233 228 224 225 219 254 317 349 355 351 344 344 351 348 353 355 356 359 2 5 8 9 8 8 9 9 10 15 18 17 7
261 264 262 268 271 275 278 274 273 274 272 273 271 276 267 250 247 241 231 226 234 232 226 234 254 300 325 334 339 342 343 343 343 348 353 358 3 6 9 10 12 11 10 9 9 10 17 15 9
258 266 265 266 269 270 275 274 275 275 272 270 267 260 259 256 259 246 237 233 226 235 235 246 256 272 297 312 323 328 327 330 336 348 356 358 1 4 7 9 10 10 10 9 8 9 9 15 13
262 267 266 269 270 273 271 276 275 275 273 274 271 267 263 256 249 243 235 236 240 238 234 244 256 268 283 292 303 312 317 324 339 346 349 355 358 0 1 3 4 5 7 8 8 8 11 12 10
262 265 272 274 273 268 267 270 274 270 273 278 278 276 271 262 257 255 253 251 247 246 243 247 252 261 269 279 290 296 308 316 323 329 335 342 351 355 357 360 1 3 5 6 6 8 10 12 10
262 256 264 266 264 267 274 270 273 277 278 280 280 278 278 273 261 256 250 248 247 241 244 250 250 257 262 268 278 286 296 302 308 317 327 334 340 343 352 357 1 3 1 1 2 6 7 9 9
255 259 259 264 266 270 275 270 274 280 277 280 281 286 285 280 269 257 254 249 245 241 243 247 249 256 258 263 272 281 286 292 298 306 316 323 333 342 354 359 359 357 358 360 1 1 1 2 2
258 256 266 268 274 274 273 278 281 279 279 278 278 281 284 285 275 266 265 255 246 244 242 243 249 255 256 260 266 273 277 280 284 293 306 316 330 339 346 348 348 350 352 353 354 353 355 356 356
262 263 261 263 265 268 273 276 277 281 280 280 278 276 278 281 282 279 271 259 254 250 250 253 255 255 257 257 261 264 264 269 277 283 289 298 309 319 326 330 336 340 343 344 344 344 345 347 346
258 259 263 266 266 268 273 276 284 281 284 283 281 280 278 276 278 278 273 269 262 261 257 258 261 262 262 260 262 263 260 264 266 266 273 278 289 296 304 312 319 325 329 331 333 335 336 336 338
263 260 257 260 264 268 272 272 292 294 293 292 295 291 282 278 274 279 281 275 272 269 270 270 272 270 269 265 263 260 260 258 256 256 259 265 271 282 289 298 305 311 316 319 321 322 324 325 325